Location: Saint-Restitut
(44.3351°N, 4.7915°E)
Time: 13:28:18
(UTC+00:00)

Cosmos 1763 Rocket - Pass Details

Date: 03 February 2023
Orbit: 733 x 778 km, 74.0° (Epoch: 20 March)

Event Time Altitude Azimuth Distance (km) Brightness Sun altitude
Rises 18:18:03 0° 336° (NNW) 3,222 6.9 -15.5°
Reaches altitude 10° 18:20:28 10° 333° (NNW) 2,286 6.2 -16.0°
Maximum altitude 18:25:34 64° 253° (WSW) 829 3.9 -16.9°
Drops below altitude 10° 18:30:35 10° 173° (S) 2,242 5.9 -17.7°
Sets 18:32:55 0° 170° (S) 3,155 6.6 -18.2°
